Regional Weather Roundup
Issued by NWS

Home | Current Version | Previous Version | Graphics & Text | Print | Product List | Glossary On
Versions: 1 2 3 4 5 6 7 8 9 10 11 12 13 14 15 16 17 18 19 20 21 22 23 24 25 26 27 28 29 30 31 32 33 34 35 36 37 38 39 40 41 42 43 44 45 46 47 48 49 50
000
ASUS43 KBIS 240602
RWRND

NORTH DAKOTA REGIONAL WEATHER ROUNDUP
NATIONAL WEATHER SERVICE BISMARCK ND
1200 AM CST FRI NOV 24 2017

NOTE: "FAIR" INDICATES FEW OR NO CLOUDS BELOW 12,000 FEET WITH NO
SIGNIFICANT WEATHER AND/OR OBSTRUCTIONS TO VISIBILITY.


NDZ001>003-009>011-017-240700-
NORTHWEST NORTH DAKOTA

CITY           SKY/WX    TMP DP  RH WIND       PRES   REMARKS
WILLISTON      MOCLDY    46  34  62 NW5       29.35S
6HR MIN TEMP:  46; 6HR MAX TEMP:  58;

MINOT          CLEAR     54  37  52 SW13      29.30S
MINOT AFB      CLEAR     45  35  69 W9        29.28F
$$

NDZ018>021-031>035-040>046-240700-
SOUTHWEST NORTH DAKOTA

CITY           SKY/WX    TMP DP  RH WIND       PRES   REMARKS
BISMARCK       CLOUDY    54  36  50 SW8       29.40F
6HR MIN TEMP:  48; 6HR MAX TEMP:  59;

DICKINSON      CLEAR     52  35  52 SW17      29.41F
GARRISON         N/A     45  37  73 W14       29.34F
6HR MIN TEMP:  44; 6HR MAX TEMP:  53;

HETTINGER ARPT CLEAR     52  34  50 W14       29.50F
$$

NDZ004>008-012>016-024-026-027-054-240700-
NORTHEAST NORTH DAKOTA

CITY           SKY/WX    TMP DP  RH WIND       PRES   REMARKS
GRAND FORKS    PTCLDY    43  37  79 SW10      29.28F
GRND FRKS AFB  PTCLDY    44  35  72 W13       29.27F
DEVILS LAKE    PTCLDY    42  35  76 SW10      29.29F
$$

NDZ022-023-025-028>030-036>039-047>053-240700-
SOUTHEAST NORTH DAKOTA

CITY           SKY/WX    TMP DP  RH WIND       PRES   REMARKS
FARGO          CLEAR     48  38  68 SW13      29.36F
6HR MIN TEMP:  40; 6HR MAX TEMP:  48;

JAMESTOWN      CLEAR     51  36  56 SW13      29.36F
$$




USA.gov is the U.S. government's official web portal to all federal, state and local government web resources and services.